Orbital Elements at Epoch 2459000.5 (2020-May-31.0) TDB
Reference: JPL 37 (heliocentric ecliptic J2000)
Element | Value | Uncertainty (1-sigma) | Units |
e | .1962528740233125 | 3.4702e-08 | |
a | 2.624957337109046 | 1.1747e-08 | au |
q | 2.109801915512814 | 9.0454e-08 | au |
i | 15.14979110813389 | 3.9942e-06 | deg |
node | 92.89918023930619 | 1.6954e-05 | deg |
peri | 241.4522503796331 | 2.0408e-05 | deg |
M | 75.98107662448876 | 1.0973e-05 | deg |
tp | 2458672.642786744293 (2019-Jul-08.14278674) | 4.7341e-05 | TDB |
period | 1553.394634763753 4.25 | 1.0427e-05 2.855e-08 | d yr |
n | .2317505107481914 | 1.5557e-09 | deg/d |
Q | 3.140112758705277 | 1.4052e-08 | au |
|
| | Orbit Determination Parameters
Additional Information
|